Météo par heure à Jufureh

Ce jour, 20 Juin, Dimanche

Heure Température Précipitation Vent Pression Humidité
00:00 +27°C° 0 mm 5 m/s 758 mmHg 75%
01:00 +26°C° 0 mm 4 m/s 758 mmHg 76%
02:00 +26°C° 0 mm 3 m/s 758 mmHg 77%
03:00 +26°C° 0 mm 3 m/s 758 mmHg 78%
04:00 +26°C° 0 mm 3 m/s 758 mmHg 78%
05:00 +26°C° 0 mm 3 m/s 758 mmHg 78%
06:00 +27°C° 0 mm 3 m/s 758 mmHg 72%
07:00 +28°C° 0 mm 3 m/s 759 mmHg 65%
08:00 +29°C° 0 mm 4 m/s 759 mmHg 58%
09:00 +30°C° 0 mm 4 m/s 759 mmHg 51%
10:00 +33°C° 0 mm 4 m/s 759 mmHg 43%
11:00 +34°C° 0 mm 4 m/s 758 mmHg 36%
12:00 +35°C° 0 mm 5 m/s 758 mmHg 36%
13:00 +35°C° 0 mm 5 m/s 757 mmHg 37%
14:00 +36°C° 0 mm 6 m/s 756 mmHg 37%
15:00 +34°C° 0 mm 6 m/s 756 mmHg 43%
16:00 +33°C° 0 mm 6 m/s 756 mmHg 48%
17:00 +32°C° 0 mm 7 m/s 756 mmHg 54%
18:00 +30°C° 0 mm 6 m/s 756 mmHg 59%
19:00 +28°C° 0 mm 6 m/s 757 mmHg 64%
20:00 +27°C° 0 mm 6 m/s 757 mmHg 70%
21:00 +27°C° 0 mm 5 m/s 757 mmHg 70%
22:00 +27°C° 0 mm 5 m/s 757 mmHg 71%
23:00 +27°C° 0 mm 5 m/s 758 mmHg 71%

Demain, 21 Juin, Lundi

Heure Température Précipitation Vent Pression Humidité
00:00 +26°C° 0 mm 4 m/s 758 mmHg 73%
01:00 +26°C° 0 mm 3 m/s 757 mmHg 74%
02:00 +26°C° 0 mm 2 m/s 757 mmHg 76%
03:00 +25°C° 0 mm 2 m/s 757 mmHg 77%
04:00 +25°C° 0 mm 2 m/s 757 mmHg 78%
05:00 +25°C° 0 mm 2 m/s 758 mmHg 79%
06:00 +26°C° 0 mm 2 m/s 758 mmHg 73%
07:00 +27°C° 0 mm 2 m/s 758 mmHg 66%
08:00 +28°C° 0 mm 3 m/s 758 mmHg 60%
09:00 +30°C° 0 mm 3 m/s 758 mmHg 52%
10:00 +31°C° 0 mm 3 m/s 758 mmHg 45%
11:00 +34°C° 0 mm 4 m/s 758 mmHg 38%
12:00 +35°C° 0 mm 4 m/s 757 mmHg 37%
13:00 +35°C° 0 mm 4 m/s 757 mmHg 37%
14:00 +36°C° 0 mm 5 m/s 757 mmHg 36%
15:00 +35°C° 0 mm 5 m/s 757 mmHg 41%
16:00 +33°C° 0 mm 6 m/s 756 mmHg 46%
17:00 +32°C° 0 mm 6 m/s 756 mmHg 51%
18:00 +30°C° 0 mm 6 m/s 757 mmHg 57%
19:00 +29°C° 0 mm 6 m/s 758 mmHg 63%
20:00 +27°C° 0 mm 6 m/s 758 mmHg 69%
21:00 +27°C° 0 mm 5 m/s 759 mmHg 70%
22:00 +27°C° 0 mm 4 m/s 759 mmHg 71%
23:00 +27°C° 0 mm 4 m/s 759 mmHg 72%

Après-demain, 22 Juin, Mardi

Heure Température Précipitation Vent Pression Humidité
00:00 +27°C° 0 mm 4 m/s 759 mmHg 72%
01:00 +27°C° 0 mm 4 m/s 759 mmHg 73%
02:00 +27°C° 0 mm 4 m/s 758 mmHg 74%
03:00 +27°C° 0 mm 3 m/s 758 mmHg 74%
04:00 +27°C° 0 mm 3 m/s 758 mmHg 74%
05:00 +27°C° 0 mm 2 m/s 758 mmHg 75%
06:00 +27°C° 0 mm 2 m/s 759 mmHg 73%
07:00 +27°C° 0 mm 2 m/s 759 mmHg 72%
08:00 +28°C° 0 mm 1 m/s 759 mmHg 70%
09:00 +28°C° 0 mm 1 m/s 759 mmHg 68%
10:00 +29°C° 0 mm 1 m/s 759 mmHg 65%
11:00 +29°C° 0 mm 1 m/s 759 mmHg 63%
12:00 +30°C° 0 mm 1 m/s 759 mmHg 59%
13:00 +31°C° 0 mm 1 m/s 758 mmHg 55%
14:00 +33°C° 0 mm 1 m/s 758 mmHg 51%
15:00 +33°C° 0 mm 3 m/s 757 mmHg 54%
16:00 +32°C° 0 mm 4 m/s 757 mmHg 56%
17:00 +32°C° 0 mm 5 m/s 757 mmHg 59%
18:00 +30°C° 0 mm 5 m/s 757 mmHg 64%
19:00 +29°C° 0 mm 5 m/s 758 mmHg 69%
20:00 +28°C° 0 mm 5 m/s 758 mmHg 74%
21:00 +27°C° 0 mm 5 m/s 758 mmHg 75%
22:00 +27°C° 0 mm 5 m/s 758 mmHg 77%
23:00 +27°C° 0 mm 5 m/s 758 mmHg 78%

23 Juin, Mercredi

Heure Température Précipitation Vent Pression Humidité
00:00 +27°C° 0 mm 4 m/s 758 mmHg 78%
01:00 +27°C° 0 mm 4 m/s 757 mmHg 78%
02:00 +26°C° 0 mm 4 m/s 757 mmHg 78%
03:00 +26°C° 0 mm 3 m/s 757 mmHg 79%
04:00 +26°C° 0 mm 3 m/s 757 mmHg 80%
05:00 +26°C° 0 mm 3 m/s 757 mmHg 80%
06:00 +27°C° 0 mm 3 m/s 757 mmHg 74%
07:00 +28°C° 0 mm 4 m/s 757 mmHg 68%
08:00 +29°C° 0 mm 4 m/s 757 mmHg 62%
09:00 +30°C° 0 mm 4 m/s 758 mmHg 54%
10:00 +33°C° 0 mm 4 m/s 758 mmHg 46%
11:00 +34°C° 0 mm 4 m/s 758 mmHg 38%
12:00 +34°C° 0 mm 5 m/s 757 mmHg 39%
13:00 +34°C° 0 mm 5 m/s 757 mmHg 39%
14:00 +35°C° 0 mm 6 m/s 756 mmHg 39%
15:00 +34°C° 0 mm 6 m/s 756 mmHg 42%
16:00 +33°C° 0 mm 5 m/s 756 mmHg 46%
17:00 +32°C° 0 mm 5 m/s 756 mmHg 49%
18:00 +30°C° 0 mm 5 m/s 756 mmHg 57%
19:00 +28°C° 0 mm 6 m/s 756 mmHg 65%
20:00 +27°C° 0 mm 6 m/s 757 mmHg 74%
21:00 +27°C° 0 mm 5 m/s 757 mmHg 75%
22:00 +27°C° 0 mm 5 m/s 757 mmHg 76%
23:00 +26°C° 0 mm 5 m/s 757 mmHg 77%

24 Juin, Jeudi

Heure Température Précipitation Vent Pression Humidité
00:00 +26°C° 0 mm 5 m/s 757 mmHg 78%
01:00 +26°C° 0 mm 5 m/s 756 mmHg 79%
02:00 +26°C° 0 mm 5 m/s 756 mmHg 80%
03:00 +26°C° 0 mm 4 m/s 756 mmHg 80%
04:00 +26°C° 0 mm 4 m/s 756 mmHg 81%
05:00 +25°C° 0 mm 3 m/s 756 mmHg 81%
06:00 +26°C° 0 mm 3 m/s 756 mmHg 77%
07:00 +27°C° 0 mm 3 m/s 757 mmHg 72%
08:00 +28°C° 0 mm 4 m/s 757 mmHg 68%
09:00 +30°C° 0 mm 4 m/s 757 mmHg 61%
10:00 +32°C° 0 mm 4 m/s 757 mmHg 54%
11:00 +34°C° 0 mm 4 m/s 757 mmHg 46%
12:00 +34°C° 0 mm 4 m/s 756 mmHg 45%
13:00 +35°C° 0 mm 4 m/s 756 mmHg 43%
14:00 +36°C° 0 mm 5 m/s 755 mmHg 42%
15:00 +34°C° 0 mm 5 m/s 755 mmHg 45%
16:00 +33°C° 0 mm 5 m/s 755 mmHg 49%
17:00 +32°C° 0 mm 6 m/s 754 mmHg 52%
18:00 +30°C° 0 mm 6 m/s 755 mmHg 58%
19:00 +29°C° 0 mm 5 m/s 755 mmHg 64%
20:00 +27°C° 0 mm 5 m/s 756 mmHg 69%
21:00 +27°C° 0 mm 4 m/s 756 mmHg 71%
22:00 +27°C° 0 mm 3 m/s 757 mmHg 72%
23:00 +27°C° 0 mm 2 m/s 758 mmHg 74%

25 Juin, Vendredi

Heure Température Précipitation Vent Pression Humidité
00:00 +27°C° 0 mm 2 m/s 757 mmHg 74%
01:00 +27°C° 0 mm 2 m/s 757 mmHg 75%
02:00 +27°C° 0 mm 2 m/s 757 mmHg 75%
03:00 +27°C° 0 mm 2 m/s 757 mmHg 75%
04:00 +27°C° 0 mm 2 m/s 757 mmHg 75%
05:00 +27°C° 0 mm 2 m/s 757 mmHg 75%
06:00 +27°C° 0 mm 2 m/s 758 mmHg 71%
07:00 +28°C° 0 mm 2 m/s 758 mmHg 67%
08:00 +29°C° 0 mm 2 m/s 758 mmHg 63%
09:00 +31°C° 0 mm 2 m/s 758 mmHg 58%
10:00 +32°C° 0 mm 2 m/s 758 mmHg 53%
11:00 +35°C° 0 mm 2 m/s 758 mmHg 48%
12:00 +35°C° 0 mm 3 m/s 757 mmHg 49%
13:00 +35°C° 0 mm 4 m/s 757 mmHg 49%
14:00 +35°C° 0 mm 5 m/s 756 mmHg 49%
15:00 +35°C° 0.4 mm 5 m/s 756 mmHg 52%
16:00 +34°C° 0.4 mm 5 m/s 756 mmHg 55%
17:00 +33°C° 0.4 mm 4 m/s 756 mmHg 58%
18:00 +32°C° 0.6 mm 4 m/s 757 mmHg 64%
19:00 +30°C° 0.6 mm 4 m/s 757 mmHg 69%
20:00 +29°C° 0.6 mm 4 m/s 758 mmHg 74%
21:00 +28°C° 0.5 mm 4 m/s 758 mmHg 76%
22:00 +28°C° 0.5 mm 3 m/s 759 mmHg 77%
23:00 +28°C° 0.5 mm 2 m/s 759 mmHg 79%
Voir plus

Nous avons besoin de votre consentement

Meteoprog et ses fournisseurs de services peuvent stocker et accéder à des données personnelles telles que des cookies, des identifiants d'appareils ou d'autres technologies similaires sur votre appareil et traiter ces données pour personnaliser le contenu et les publicités, ainsi que pour fournir des fonctionnalités de médias sociaux et analyser le trafic.

  • Stocker et/ou accéder à des informations sur votre appareil

    Des cookies, des identifiants d'appareils ou d'autres informations peuvent être stockés ou accessibles sur votre appareil aux fins indiquées ci-dessus.

  • Annonces et contenus personnalisés, mesure des annonces et des contenus, connaissance de l'audience et développement de produits

    Les annonces et le contenu peuvent être personnalisés en fonction d'un profil. D'autres données peuvent être ajoutées pour mieux personnaliser les annonces et le contenu. Les performances des publicités et du contenu peuvent être mesurées. Il est possible d'obtenir des informations sur le public qui a vu les publicités et le contenu. Ces données peuvent être utilisées pour développer ou améliorer l'expérience de l'utilisateur, les systèmes et les logiciels.

En cliquant sur "J'accepte", vous autorisez l'utilisation de cookies, des identifiants d'appareils, des balises web ou d'autres technologies similaires. Vos paramètres peuvent être modifiés dans le navigateur de votre appareil.

Dans certains cas, des intérêts légitimes peuvent être invoqués plutôt qu'un consentement. Vous pouvez en savoir plus à ce sujet dans notre Politique de confidentialité et de cookies.